Location: Casilda
(33.0440°S, 61.1680°W)
Time: 06:09:20
(UTC-03:00)

ISS - Pass Details

Date: 24 June 2022
Orbit: 415 x 421 km, 51.6° (Epoch: 25 June)

Event Time Altitude Azimuth Distance (km) Brightness Sun altitude
Rises 18:32:22 0° 260° (W) 2,362 1.1 -5.7°
Drops below altitude 10° 18:35:53 - 221° (SW) 1,555 -0.6 -6.4°
Maximum altitude 18:36:45 10° 207° (SSW) 1,513 -0.9 -6.6°
Enters shadow 18:40:30 - 158° (SSE) 2,181 -0.5 -7.3°
